Location: Saint Louis
(38.6272°N, 90.1978°W)
Time: 14:39:24
(UTC-05:00)

ISS - Pass Details

Date: 18 July 2013
Orbit: 402 x 404 km, 51.6° (Epoch: 28 May)

Event Time Altitude Azimuth Distance (km) Brightness Sun altitude
Exits shadow 04:05:08 18° 154° (SSE) 1,095 -1.4 -17.3°
Maximum altitude 04:06:03 20° 131° (SE) 1,025 -1.3 -17.1°
Drops below altitude 10° 04:08:38 10° 81° (E) 1,508 0.3 -16.8°
Sets 04:11:05 0° 64° (ENE) 2,376 1.9 -16.5°
